This is the latest recevied weather packets stored in our database for station/object N2ZVN. If no packets are shown the sender has not sent any weather packets the latest 1 day(s).
| Time | Temp. | Humidity | Pressure | Rain* | Wind** | Luminosity | Snow |
|---|---|---|---|---|---|---|---|
| 1778066996 | 6.11° C | 96% | 1009.7 hPa | 1.27 mm | - | 19 W/m² | - |
| 1778066089 | 6.11° C | 97% | 1009.7 hPa | 0 mm | - | 16 W/m² | - |
| 1778064876 | 6.11° C | 97% | 1009.6 hPa | 1.27 mm | - | 9 W/m² | - |
| 1778062152 | 6.67° C | 97% | 1009.9 hPa | 0 mm | - | 1 W/m² | - |
| 1778061548 | 6.67° C | 97% | 1009.7 hPa | 0 mm | - | 0 W/m² | - |
| 1778060641 | 6.67° C | 97% | 1009.7 hPa | 1.78 mm | - | 0 W/m² | - |
| 1778060036 | 6.67° C | 97% | 1009.9 hPa | 1.27 mm | - | 0 W/m² | - |
| 1778058220 | 6.67° C | 97% | 1010 hPa | 0 mm | - | 0 W/m² | - |
| 1778057006 | 6.67° C | 96% | 1009.5 hPa | 1.78 mm | - | 0 W/m² | - |
| 1778056703 | 6.67° C | 96% | 1009.6 hPa | 0 mm | - | 0 W/m² | - |
| 1778056098 | 6.67° C | 96% | 1009.6 hPa | 1.27 mm | - | 0 W/m² | - |
| 1778055794 | 7.22° C | 96% | 1009.6 hPa | 0 mm | - | 0 W/m² | - |
| 1778054582 | 7.22° C | 96% | 1009.8 hPa | 3.05 mm | - | 0 W/m² | - |
| 1778053674 | 7.22° C | 96% | 1009.6 hPa | 3.05 mm | - | 0 W/m² | - |
| 1778053069 | 7.22° C | 96% | 1009.4 hPa | 1.78 mm | - | 0 W/m² | - |
| 1778052766 | 7.22° C | 97% | 1009.9 hPa | 3.05 mm | - | 0 W/m² | - |
| 1778052161 | 7.22° C | 97% | 1009.8 hPa | 1.78 mm | - | 0 W/m² | - |
| 1778051556 | 7.22° C | 97% | 1009.8 hPa | 3.05 mm | - | 0 W/m² | - |
| 1778050041 | 7.22° C | 96% | 1009.7 hPa | 0 mm | - | 0 W/m² | - |
| 1778049435 | 7.22° C | 96% | 1009.6 hPa | 1.27 mm | - | 0 W/m² | - |
| 1778048830 | 7.78° C | 96% | 1009.9 hPa | 1.78 mm | - | 0 W/m² | - |
| 1778047619 | 7.78° C | 97% | 1009.9 hPa | 1.78 mm | - | 0 W/m² | - |
| 1778047315 | 7.78° C | 96% | 1010.4 hPa | 1.78 mm | - | 0 W/m² | - |
| 1778046709 | 7.78° C | 96% | 1010.2 hPa | 3.05 mm | - | 0 W/m² | - |
| 1778046102 | 7.78° C | 97% | 1010.7 hPa | 3.05 mm | - | 0 W/m² | - |
* Rain latest hour (hover to see other rain measurements)
** Current wind speed in m/s (hover to see current wind gust speed)